[[{"header":{"parameterUnit":"m.s-1","parameterCategory":1,"la1":30.2992,"la2":30.254,"lo1":-89.0895,"lo2":-89.0443,"dy":0.0025,"dx":0.0025,"nx":19,"ny":19,"refTime":"2026-04-22T09:00:00:Z","depth":0,"parameterNumber":2,"parameterNumberName":"U-component_of_WINDS"},"data":[0,0,0,-2.8865,-2.8868,-2.8999,-2.9,-2.9165,-2.9166,0,0,0,0,0,0,0,0,0,0,0,-2.8822,-2.8822,-2.8865,-2.8868,-2.8999,-2.9,-2.9165,-2.9166,0,0,0,0,0,0,0,0,0,0,0,-2.8821,-2.8822,-2.8823,-2.8868,-2.8999,-2.9,-2.9164,-2.9067,0,0,0,0,0,0,0,0,0,0,-2.894,-2.8895,-2.8822,-2.8823,-2.8869,-2.8999,-2.9,-2.9062,-2.9073,-2.9104,0,-2.9127,0,-2.9149,-2.9177,-2.9178,0,0,0,-2.8872,-2.8886,-2.8925,-2.8824,-2.887,-2.8999,-2.8941,-2.9068,-2.908,-2.9118,-2.913,-2.9136,-2.9152,-2.9178,-2.9179,-2.9339,-2.9339,0,0,-2.8864,-2.8843,-2.8917,-2.8933,-2.891,-2.8937,-2.8945,-2.9076,-2.9088,-2.913,-2.914,-2.9155,-2.9179,-2.918,-2.9338,-2.9339,0,0,0,-2.8841,-2.8838,-2.8874,-2.8926,-2.895,-2.894,-2.895,-2.9082,-2.9096,-2.9142,-2.9157,-2.918,-2.9182,-2.9338,-2.9339,-2.9344,0,0,0,-2.8837,-2.8824,-2.8871,-2.8859,-2.8947,-2.9017,-2.8953,-2.9087,-2.9102,-2.9156,-2.918,-2.9184,-2.9337,-2.9338,-2.9343,-2.935,0,0,0,-2.8815,-2.8822,-2.8839,-2.8858,-2.8913,-2.9015,-2.9037,-2.9091,-2.9111,-2.9178,-2.9184,-2.9337,-2.9338,-2.9341,-2.9348,-2.9385,0,0,0,-2.8785,-2.8843,-2.8839,-2.891,-2.8912,-2.9018,-2.9036,-2.9116,-2.9174,-2.9181,-2.9337,-2.9339,-2.9341,-2.9346,-2.9383,-2.941,-2.942,0,0,-2.8846,-2.8849,-2.8893,-2.8893,-2.8994,-2.9,-2.9103,-2.9177,-2.9204,-2.9293,-2.9297,-2.9343,-2.9348,-2.9385,-2.9487,-2.9494,0,0,0,-2.8905,-2.8936,-2.8968,-2.9021,-2.9079,-2.913,-2.919,-2.9219,-2.9295,-2.9245,-2.9369,-2.9372,-2.9395,-2.9409,-2.9415,-2.9436,-2.9345,-2.9344,-2.9344,-2.8958,-2.899,-2.9065,-2.9113,-2.9165,-2.9229,-2.9275,-2.9324,-2.9341,-2.937,-2.9395,-2.9453,-2.9469,-2.9474,-2.9495,-2.9415,-2.9415,-2.9415,-2.9415,-2.9049,-2.9097,-2.912,-2.92,-2.9235,-2.9304,-2.937,-2.938,-2.945,-2.9436,-2.9458,-2.9437,-2.9481,-2.9501,-2.9416,-2.9416,-2.9415,-2.9415,-2.9415,-2.9085,-2.9114,-2.9148,-2.923,-2.9291,-2.9341,-2.9407,-2.9437,-2.9466,-2.9488,-2.9518,-2.9518,-2.9521,-2.9501,-2.9501,-2.9502,-2.9502,-2.9502,-2.9502,-2.9108,-2.9146,-2.9197,-2.9266,-2.9306,-2.9363,-2.9431,-2.9472,-2.9525,-2.9542,-2.9542,-2.9556,-2.948,-2.9459,-2.9505,-2.9505,-2.9504,-2.9504,-2.9504,-2.9183,-2.9172,-2.925,-2.929,-2.9376,-2.9435,-2.9475,-2.9556,-2.9595,-2.9628,-2.9639,-2.9579,-2.9584,-2.9579,-2.9562,-2.9632,-2.9632,-2.9632,-2.9632,-2.9212,-2.9219,-2.9307,-2.9369,-2.9434,-2.9479,-2.957,-2.9626,-2.9681,-2.9708,-2.9704,-2.9685,-2.9678,-2.9688,-2.968,-2.9664,-2.9759,-2.9759,-2.9759,-2.926,-2.9275,-2.9344,-2.9397,-2.9467,-2.9527,-2.9615,-2.9688,-2.9749,-2.9765,-2.973,-2.9724,-2.9694,-2.9683,-2.9692,-2.968,-2.9652,0,0]},{"header":{"parameterUnit":"m.s-1","parameterCategory":1,"la1":30.2992,"la2":30.254,"lo1":-89.0895,"lo2":-89.0443,"dy":0.0025,"dx":0.0025,"nx":19,"ny":19,"refTime":"2026-04-22T09:00:00:Z","depth":0,"parameterNumber":3,"parameterNumberName":"V-component_of_WINDS"},"data":[0,0,0,4.0323,4.0322,4.0279,4.0279,4.0244,4.0244,0,0,0,0,0,0,0,0,0,0,0,4.035,4.035,4.0323,4.0322,4.0279,4.0279,4.0244,4.0244,0,0,0,0,0,0,0,0,0,0,0,4.0349,4.035,4.035,4.0322,4.0279,4.0279,4.0244,4.0269,0,0,0,0,0,0,0,0,0,0,4.0308,4.0346,4.035,4.035,4.0322,4.0279,4.0279,4.027,4.0268,4.0273,0,4.0283,0,4.0263,4.0243,4.0243,0,0,0,4.0312,4.0348,4.0324,4.035,4.0322,4.0279,4.0296,4.0269,4.0266,4.027,4.0282,4.028,4.0263,4.0243,4.0243,4.0311,4.0312,0,0,4.0314,4.0349,4.0326,4.0323,4.0332,4.0297,4.0294,4.0267,4.0281,4.0282,4.0279,4.0262,4.0243,4.0243,4.0311,4.0312,0,0,0,4.0328,4.0351,4.0327,4.0325,4.0316,4.0296,4.0293,4.0283,4.0272,4.0278,4.0262,4.0243,4.0243,4.031,4.0311,4.0385,0,0,0,4.0329,4.0359,4.0329,4.035,4.0317,4.0299,4.031,4.0274,4.027,4.0262,4.0243,4.0243,4.0309,4.031,4.0381,4.0415,0,0,0,4.0348,4.0361,4.036,4.0352,4.0334,4.0298,4.0286,4.0272,4.026,4.0243,4.0243,4.0308,4.031,4.0378,4.0409,4.0443,0,0,0,4.0377,4.0426,4.0362,4.0409,4.0335,4.0345,4.0286,4.0291,4.0286,4.0243,4.0309,4.0311,4.0377,4.0405,4.044,4.0479,4.0499,0,0,4.0459,4.0437,4.0463,4.0403,4.0434,4.0349,4.0389,4.0351,4.0317,4.0315,4.0316,4.0383,4.0409,4.0443,4.0595,4.0611,0,0,0,4.05,4.0519,4.0519,4.0516,4.0488,4.0467,4.0419,4.0404,4.0401,4.0324,4.0403,4.0417,4.0436,4.0453,4.0466,4.048,4.032,4.032,4.032,4.0666,4.062,4.0658,4.0607,4.0605,4.0554,4.0548,4.0519,4.0474,4.0493,4.0493,4.0591,4.0612,4.0622,4.0637,4.0509,4.0509,4.051,4.051,4.0781,4.08,4.0738,4.0753,4.0704,4.0716,4.0669,4.0636,4.0639,4.0588,4.0602,4.055,4.0641,4.0652,4.0515,4.0514,4.0513,4.0513,4.0512,4.0885,4.0886,4.0868,4.0858,4.0855,4.0801,4.0807,4.0761,4.0719,4.0732,4.0727,4.0725,4.0719,4.0733,4.0733,4.0733,4.0734,4.0734,4.0734,4.1001,4.0978,4.0989,4.0963,4.0954,4.0937,4.0886,4.0876,4.0853,4.0819,4.0819,4.0772,4.0658,4.0631,4.0739,4.0738,4.0738,4.0737,4.0737,4.1137,4.1098,4.1116,4.1108,4.1073,4.1073,4.1014,4.0997,4.0982,4.0987,4.0935,4.0859,4.0834,4.0823,4.08,4.0945,4.0945,4.0945,4.0945,4.1226,4.1208,4.1215,4.1205,4.1189,4.1137,4.1158,4.1118,4.107,4.1058,4.103,4.0995,4.0986,4.0966,4.0952,4.093,4.1105,4.1106,4.1106,4.1307,4.1285,4.1312,4.1266,4.1234,4.1208,4.1226,4.1216,4.1153,4.1111,4.1047,4.104,4.0984,4.0968,4.0927,4.0906,4.0864,0,0]}]]